Back to catalog

COSMOS 2251 DEB

AliveLEO
NORAD 35834·DEBRIS·🇷🇺 Russia

Launched Jun 16, 1993 from Plesetsk Cosmodrome

Loading…

Next Passes (next 24 hours)

TLE

FreshSource: Space-Track

Epoch: Sep 14, 2026, 05:02 UTC

1 35834U 93036ATG 26257.21033206  .00000272  00000-0  15027-3 0  9992
2 35834  73.9321 174.2511 0111127 276.4378 234.7825 14.13160100701546

Track COSMOS 2251 DEB in real time with AllMySat

Download on the App Store